Regional Weather Roundup
Issued by NWS Upton, NY

Current Version | Previous Version | Graphics & Text | Print | Product List | Glossary Off
Versions: 1 2 3 4 5 6 7 8 9 10 11 12 13 14 15 16 17 18 19 20 21 22 23 24 25 26 27 28 29 30 31 32 33 34 35 36 37 38 39 40 41 42 43 44 45 46 47 48 49

000
ASUS41 KOKX 231705
RWROKX

REGIONAL WEATHER ROUNDUP
NATIONAL WEATHER SERVICE NEW YORK NY
100 PM EDT WED JUL 23 2014

NOTE: "FAIR" INDICATES FEW OR NO CLOUDS BELOW 12,000 FEET WITH NO
SIGNIFICANT WEATHER AND/OR OBSTRUCTIONS TO VISIBILITY.

NYZ071-072-176-178-NJZ106-104-231800-
NEW YORK CITY METRO AREA


CITY           SKY/WX    TMP DP  RH WIND       PRES   REMARKS
CENTRAL PARK   MOSUNNY   86  71  60 VRB6      29.91F HX  91
LAGUARDIA APRT MOSUNNY   86  71  60 S14G20    29.88F HX  91
KENNEDY INTL   MOSUNNY   82  71  69 S13       29.91F
NEWARK/LIBERTY PTSUNNY   87  72  60 S9        29.88F HX  93
BRNX BOT. GARD   N/A     86  70  58 SW12      29.91F HX  90
TETERBORO      MOSUNNY   90  71  53 S10       29.87F HX  96
$$

NYZ177-179-078>081-231800-
LONG ISLAND NEW YORK

CITY           SKY/WX    TMP DP  RH WIND       PRES   REMARKS
FARMINGDALE    SUNNY     81  71  71 S12       29.91F
ISLIP          MOSUNNY   83  70  64 SW15      29.90F
SHIRLEY        SUNNY     80  69  69 S13       29.92F
WESTHAMPTON    SUNNY     79  68  69 SW15G22   29.93F
MONTAUK POINT    N/A     79  70  74 S10G18    29.93F
$$

NYZ052-065-067-231800-
HUDSON VALLEY

CITY           SKY/WX    TMP DP  RH WIND       PRES   REMARKS
WHITE PLAINS   MOSUNNY   85  71  63 S7G16     29.89F HX  90
NEWBURGH       MOSUNNY   86  73  66 S7        29.89F HX  93
MONTGOMERY     SUNNY     88  72  58 S10       29.86F HX  94
POUGHKEEPSIE   SUNNY     88  71  57 SW8       29.85F HX  94
ALBANY         PTSUNNY   88  73  61 S12       29.81F HX  95
$$

NJZ001-105-106-008-010-013-015-019>022-104-231800-
NEW JERSEY

CITY           SKY/WX    TMP DP  RH WIND       PRES   REMARKS
NEWARK/LIBERTY PTSUNNY   87  72  60 S9        29.88F HX  93
TETERBORO      MOSUNNY   90  71  53 S10       29.87F HX  96
CALDWELL       MOSUNNY   86  71  60 SW5       29.89F HX  91
MORRISTOWN     MOSUNNY   88  72  58 S9        29.89F HX  94
SOMERVILLE     PTSUNNY   87  73  62 VRB7      29.87F HX  94
LINDEN         FAIR      89  71  55 SW7       29.90F HX  95
SUSSEX         SUNNY     88  72  58 VRB7      29.88F HX  94
ANDOVER          N/A     86  72  62 SW6       29.90F HX  92
TRENTON        MOSUNNY   87  72  60 SW9       29.89F HX  93
MILLVILLE      MOSUNNY   86  73  65 VRB7      29.93F HX  93
ATLANTIC CITY  PTSUNNY   85  73  67 S14       29.92F HX  91
WRIGHTSTOWN    MOSUNNY   89  73  59 SW13G20   29.88F HX  96
TOMS RIVER     PTSUNNY   90  72  55 SW10G18   29.90F HX  96
BELMAR         PTSUNNY   88  72  58 SW7       29.90F HX  94
$$

PAZ047>061-062-071-231800-
EASTERN PENNSYLVANIA

CITY           SKY/WX    TMP DP  RH WIND       PRES   REMARKS
PHILADELPHIA   MOSUNNY   88  70  55 SW14      29.91F HX  93
ALLENTOWN      MOSUNNY   88  72  58 VRB5      29.89F HX  94
SCRANTON       SUNNY     90  66  45 W14G21    29.89F HX  92
$$

CTZ002-004>006-009-010-012-RIZ004-006-007-MAZ004-011-015-231800-
SOUTHERN NEW ENGLAND
 IN CT

CITY           SKY/WX    TMP DP  RH WIND       PRES   REMARKS
BRADLEY INTL   MOSUNNY   89  71  55 S14       29.84F HX  95
HARTFORD       MOSUNNY   87  71  58 S12       29.85F HX  93
DANBURY        SUNNY     85  70  60 S10       29.90F
WTRBRY/OXFORD  PTSUNNY   84  72  65 SW8G22    29.93F
BRIDGEPORT     SUNNY     84  70  62 SW9       29.89F
MERIDEN        SUNNY     87  71  58 S12G18    29.88F HX  93
NEW HAVEN      MOSUNNY   84  70  62 S7        29.89F
CHESTER        FAIR      82  72  69 S10G18    29.91F
GROTON         SUNNY     77  71  82 SW8       29.90F
WILLIMANTIC    MOSUNNY   87  71  58 S10       29.87F HX  93

 IN RI

CITY           SKY/WX    TMP DP  RH WIND       PRES   REMARKS
PROVIDENCE     MOSUNNY   87  69  54 SW16G24   29.88F HX  91
BLOCK ISLAND   SUNNY     75  68  78 SW18G26   29.93F
WESTERLY       SUNNY     80  69  69 MISG      29.91F

 IN MA

CITY           SKY/WX    TMP DP  RH WIND       PRES   REMARKS
BOSTON         MOSUNNY   88  70  55 S16G23    29.83F HX  93
WORCESTER      MOSUNNY   84  68  58 SW12G18   29.89F
WESTFIELD      MOSUNNY   89  72  56 S10       29.83F HX  96
PROVINCETOWN   SUNNY     81  72  74 SW18G25   29.88F
NANTUCKET      PTSUNNY   73  67  81 SW14      29.94F
$$

ANZ330-335-338-340-345-350-353-355-231800-
COASTAL MARINE OBSERVATIONS


STATION/POSITION TIME  SKY/WX   TEMP    WIND        PRES    VSBY  WAVE
                                AIR SEA DIR/SP/G                  HT/PER
                 (UTC)          (F)     (DEG/KT/KT) (MB)    (MI)  (FT/S)
NY HARB ENTRANCE NOT AVBL
4S FIRE IS       NOT AVBL
23SW MTP         1700            73 71              1013.0          3/ 4
HUDSON CANYON    1700            74 74  210/ 10/ 12 1014.4          2/ 7
EXECUTION ROCKS  1700            81 73  210/ 12/ 16   N/A
WESTERN LI SOUND 1700            79     230/  6/  8   N/A           0
CENTRAL LI SOUND 1600            76 74  190/  8/ 12   N/A           1/ 3
EASTERN LI SOUND 1600            72 67  210/  8/ 10   N/A
ROBBINS REEF     1700            80     160/ 13/ 15   N/A
$$


>>>>>>>>>>>>>>>>>>>>>>>>>>>> KEY <<<<<<<<<<<<<<<<<<<<<<<<<<<
>                                                          <
>     SKY/WX - SKY CONDITION/PRESENT WEATHER               <
>     TMP    - TEMPERATURE IN FAHRENHEIT                   <
>     DP     - DEWPOINT IN FAHRENHEIT                      <
>     RH     - RELATIVE HUMIDITY IN PERCENT                <
>     WIND   - DIRECTION AND SPEED IN MPH                  <
>     PRES   - MEAN SEA LEVEL PRESSURE IN INCHES OF HG     <
>     WCI    - WIND CHILL INDEX                            <
>     VSB    - VISIBILITY IN MILES                         <
>     HX     - HEAT INDEX                                  <
>     TC     - TEMPERATURE IN CELSIUS                      <
>     VRB    - VARIABLE WIND DIRECTION                     <
>                                                          <
>>>>>>>>>>>>>>>>>>>>>>>>>>>> KEY <<<<<<<<<<<<<<<<<<<<<<<<<<<





USA.gov is the U.S. government's official web portal to all federal, state and local government web resources and services.